This is the latest recevied weather packets stored in our database for station/object KN6WGU. If no packets are shown the sender has not sent any weather packets the latest 10 day(s).
| Time | Temp. | Humidity | Pressure | Rain* | Wind** | Luminosity | Snow |
|---|---|---|---|---|---|---|---|
| 1778210949 | 10.56° C | 61% | 1006.3 hPa | 0 mm | - | 0 W/m² | - |
| 1778210646 | 10.56° C | 60% | 1006.5 hPa | 0 mm | - | 0 W/m² | - |
| 1778210343 | 10.56° C | 60% | 1006.2 hPa | 0 mm | - | 0 W/m² | - |
| 1778210040 | 10.56° C | 59% | 1006.4 hPa | 0 mm | - | 0 W/m² | - |
| 1778209735 | 10.56° C | 60% | 1006.5 hPa | 0 mm | - | 0 W/m² | - |
| 1778209433 | 10.56° C | 60% | 1006.2 hPa | 0 mm | - | 0 W/m² | - |
| 1778209130 | 10.56° C | 61% | 1006.5 hPa | 0 mm | - | 0 W/m² | - |
| 1778208821 | 10° C | 60% | 1006.4 hPa | 0 mm | - | 0 W/m² | - |
| 1778208518 | 10° C | 61% | 1006.5 hPa | 0 mm | - | 0 W/m² | - |
| 1778208215 | 10° C | 61% | 1006.4 hPa | 0 mm | - | 0 W/m² | - |
| 1778207912 | 10° C | 62% | 1006.3 hPa | 0 mm | - | 0 W/m² | - |
| 1778207609 | 10° C | 62% | 1006.3 hPa | 0 mm | - | 0 W/m² | - |
| 1778207306 | 9.44° C | 63% | 1006.2 hPa | 0 mm | - | 0 W/m² | - |
| 1778207001 | 9.44° C | 64% | 1006.3 hPa | 0 mm | - | 0 W/m² | - |
| 1778206698 | 9.44° C | 66% | 1006.4 hPa | 0 mm | - | 0 W/m² | - |
| 1778206394 | 9.44° C | 64% | 1006.2 hPa | 0 mm | - | 0 W/m² | - |
| 1778206091 | 9.44° C | 64% | 1006.2 hPa | 0 mm | - | 0 W/m² | - |
| 1778205789 | 8.89° C | 64% | 1006.3 hPa | 0 mm | - | 0 W/m² | - |
| 1778205485 | 8.33° C | 71% | 1006.2 hPa | 0 mm | - | 0 W/m² | - |
| 1778205182 | 8.89° C | 73% | 1006 hPa | 0 mm | - | 0 W/m² | - |
| 1778204879 | 8.33° C | 71% | 1006 hPa | 0 mm | - | 0 W/m² | - |
| 1778204576 | 8.33° C | 71% | 1006.1 hPa | 0 mm | - | 0 W/m² | - |
| 1778204271 | 8.33° C | 70% | 1005.9 hPa | 0 mm | - | 0 W/m² | - |
| 1778203968 | 8.33° C | 69% | 1006 hPa | 0 mm | - | 0 W/m² | - |
| 1778203666 | 8.33° C | 69% | 1006 hPa | 0 mm | - | 0 W/m² | - |
* Rain latest hour (hover to see other rain measurements)
** Current wind speed in m/s (hover to see current wind gust speed)